TimeEDT,TemperatureF,Dew PointF,Humidity,Sea Level PressureIn,VisibilityMPH,Wind Direction,Wind SpeedMPH,Gust SpeedMPH,PrecipitationIn,Events,Conditions,WindDirDegrees,DateUTC
12:14 AM,79.3,68.5,69,29.85,10.0,SW,10.4,-,N/A,,Clear,220,2013-07-19 04:14:00
12:34 AM,79.2,68.7,70,29.85,10.0,SSW,10.4,-,N/A,,Clear,210,2013-07-19 04:34:00
12:53 AM,78.8,68.9,72,29.84,10.0,SSW,9.2,-,N/A,,Clear,210,2013-07-19 04:53:00
1:14 AM,78.3,68.9,73,29.83,10.0,SSW,9.2,-,N/A,,Clear,210,2013-07-19 05:14:00
1:34 AM,77.9,69.1,74,29.83,10.0,SSW,9.2,-,N/A,,Clear,210,2013-07-19 05:34:00
1:53 AM,78.3,69.1,73,29.82,10.0,SW,10.4,-,N/A,,Clear,220,2013-07-19 05:53:00
2:14 AM,79.0,69.3,72,29.82,10.0,SW,13.8,-,N/A,,Clear,230,2013-07-19 06:14:00
2:34 AM,78.8,69.4,73,29.81,10.0,North,-9999.0,-,N/A,,Clear,0,2013-07-19 06:34:00
2:54 AM,78.6,69.4,73,29.80,10.0,North,-9999.0,-,N/A,,Clear,0,2013-07-19 06:54:00
3:14 AM,77.9,69.6,76,29.80,10.0,SW,10.4,-,N/A,,Clear,230,2013-07-19 07:14:00
3:34 AM,77.5,69.6,76,29.79,10.0,SW,11.5,-,N/A,,Clear,230,2013-07-19 07:34:00
3:54 AM,77.0,69.8,78,29.79,10.0,SW,11.5,-,N/A,,Clear,230,2013-07-19 07:54:00
4:14 AM,76.6,69.8,79,29.77,10.0,SW,10.4,-,N/A,,Clear,230,2013-07-19 08:14:00
4:34 AM,76.3,69.8,80,29.77,10.0,SW,10.4,-,N/A,,Clear,230,2013-07-19 08:34:00
4:54 AM,76.1,69.8,81,29.77,10.0,WSW,11.5,-,N/A,,Clear,240,2013-07-19 08:54:00
5:14 AM,76.6,69.8,79,29.77,10.0,SW,9.2,-,N/A,,Clear,230,2013-07-19 09:14:00
5:34 AM,76.3,70.0,81,29.76,10.0,SW,12.7,-,N/A,,Clear,230,2013-07-19 09:34:00
5:54 AM,76.1,70.0,81,29.75,10.0,North,-9999.0,-,N/A,,Clear,0,2013-07-19 09:54:00
6:14 AM,76.3,70.0,81,29.74,10.0,SW,9.2,-,N/A,,Clear,230,2013-07-19 10:14:00
6:34 AM,76.3,70.2,81,29.75,10.0,SW,10.4,-,N/A,,Clear,230,2013-07-19 10:34:00
6:54 AM,77.4,70.7,80,29.75,10.0,SW,11.5,-,N/A,,Clear,230,2013-07-19 10:54:00
7:14 AM,78.3,70.9,78,29.74,10.0,SW,15.0,18.4,N/A,,Clear,230,2013-07-19 11:14:00
7:34 AM,79.3,71.1,76,29.74,10.0,SW,15.0,-,N/A,,Clear,230,2013-07-19 11:34:00
7:54 AM,80.4,71.6,74,29.74,10.0,SW,13.8,-,N/A,,Clear,230,2013-07-19 11:54:00
8:14 AM,81.5,71.6,72,29.73,10.0,SW,17.3,20.7,N/A,,Clear,230,2013-07-19 12:14:00
8:34 AM,82.2,71.6,70,29.73,10.0,North,-9999.0,-,N/A,,Clear,0,2013-07-19 12:34:00
8:54 AM,83.1,71.6,68,29.72,10.0,SW,17.3,-,N/A,,Clear,230,2013-07-19 12:54:00
9:14 AM,84.4,71.2,65,29.72,10.0,North,-9999.0,-,N/A,,Clear,0,2013-07-19 13:14:00
9:33 AM,85.3,71.2,63,29.72,10.0,North,-9999.0,-,N/A,,Clear,0,2013-07-19 13:33:00
9:54 AM,86.0,70.9,60,29.71,10.0,SW,19.6,-,N/A,,Clear,230,2013-07-19 13:54:00
10:14 AM,87.3,70.5,57,29.70,10.0,North,-9999.0,-,N/A,,Clear,0,2013-07-19 14:14:00
10:33 AM,88.2,69.8,54,29.69,10.0,North,-9999.0,-,N/A,,Scattered Clouds,0,2013-07-19 14:33:00
10:54 AM,89.4,69.8,52,29.68,10.0,North,-9999.0,-,N/A,,Clear,0,2013-07-19 14:54:00
11:14 AM,90.5,69.1,49,29.68,10.0,North,-9999.0,-,N/A,,Clear,0,2013-07-19 15:14:00
11:33 AM,91.6,68.9,47,29.67,10.0,North,-9999.0,-,N/A,,Scattered Clouds,0,2013-07-19 15:33:00
11:54 AM,92.5,68.2,45,29.67,10.0,North,-9999.0,-,N/A,,Mostly Cloudy,0,2013-07-19 15:54:00
12:14 PM,91.8,68.2,46,29.65,10.0,WSW,25.3,-,N/A,,Mostly Cloudy,250,2013-07-19 16:14:00
12:33 PM,91.4,67.5,45,29.65,10.0,SW,32.2,-,N/A,,Mostly Cloudy,230,2013-07-19 16:33:00
12:54 PM,90.3,66.6,45,29.67,10.0,North,-9999.0,-,N/A,,Mostly Cloudy,0,2013-07-19 16:54:00
1:14 PM,86.7,70.5,58,29.66,7.0,North,-9999.0,-,N/A,Rain,Light Rain,0,2013-07-19 17:14:00
1:34 PM,86.2,67.8,54,29.67,10.0,North,-9999.0,-,N/A,,Scattered Clouds,0,2013-07-19 17:34:00
1:54 PM,90.1,67.6,47,29.68,10.0,West,19.6,27.6,N/A,,Clear,270,2013-07-19 17:54:00
2:14 PM,92.3,68.9,46,29.66,10.0,North,-9999.0,-,N/A,,Scattered Clouds,0,2013-07-19 18:14:00
2:34 PM,92.8,69.8,47,29.66,10.0,North,-9999.0,-,N/A,,Scattered Clouds,0,2013-07-19 18:34:00
2:54 PM,93.2,68.4,44,29.65,10.0,North,-9999.0,-,N/A,,Mostly Cloudy,0,2013-07-19 18:54:00
3:14 PM,93.2,68.5,44,29.65,10.0,North,-9999.0,-,N/A,,Mostly Cloudy,0,2013-07-19 19:14:00
3:34 PM,92.7,68.0,44,29.64,10.0,North,-9999.0,-,N/A,,Scattered Clouds,0,2013-07-19 19:34:00
3:54 PM,92.7,67.5,43,29.64,10.0,North,-9999.0,-,N/A,,Scattered Clouds,0,2013-07-19 19:54:00
4:14 PM,93.2,66.0,41,29.63,10.0,West,31.1,38.0,N/A,,Scattered Clouds,260,2013-07-19 20:14:00
4:34 PM,93.0,66.2,41,29.63,10.0,North,-9999.0,-,N/A,,Scattered Clouds,0,2013-07-19 20:34:00
4:54 PM,92.7,66.0,41,29.63,10.0,North,-9999.0,-,N/A,,Mostly Cloudy,0,2013-07-19 20:54:00
5:14 PM,92.5,66.0,42,29.63,10.0,North,-9999.0,-,N/A,,Mostly Cloudy,0,2013-07-19 21:14:00
5:34 PM,90.3,66.4,45,29.64,10.0,WSW,20.7,-,N/A,,Mostly Cloudy,250,2013-07-19 21:34:00
5:54 PM,90.7,68.0,47,29.63,10.0,WSW,15.0,-,N/A,,Mostly Cloudy,250,2013-07-19 21:54:00
6:14 PM,91.9,64.9,41,29.64,10.0,West,19.6,27.6,N/A,,Scattered Clouds,260,2013-07-19 22:14:00
6:34 PM,89.6,64.0,42,29.64,10.0,West,15.0,20.7,N/A,,Scattered Clouds,270,2013-07-19 22:34:00
6:54 PM,91.0,62.4,38,29.64,10.0,West,17.3,23.0,N/A,,Scattered Clouds,260,2013-07-19 22:54:00
7:14 PM,90.9,60.1,35,29.64,10.0,West,17.3,21.9,N/A,,Clear,270,2013-07-19 23:14:00
7:34 PM,90.3,58.6,34,29.65,10.0,West,11.5,17.3,N/A,,Clear,280,2013-07-19 23:34:00
7:54 PM,80.8,64.6,58,29.67,10.0,ENE,12.7,16.1,N/A,,Clear,60,2013-07-19 23:54:00
8:13 PM,73.9,66.2,77,29.68,10.0,ENE,12.7,-,N/A,,Mostly Cloudy,70,2013-07-20 00:13:00
8:34 PM,73.4,66.4,79,29.69,10.0,ENE,9.2,-,N/A,,Scattered Clouds,60,2013-07-20 00:34:00
8:54 PM,72.3,68.2,87,29.69,7.0,East,5.8,-,0.01,Rain,Light Rain,80,2013-07-20 00:54:00
9:14 PM,71.2,68.2,90,29.69,10.0,ENE,10.4,-,N/A,,Scattered Clouds,60,2013-07-20 01:14:00
9:34 PM,71.6,68.4,89,29.69,10.0,East,4.6,-,N/A,,Mostly Cloudy,90,2013-07-20 01:34:00
9:54 PM,71.4,68.7,91,29.72,7.0,NW,5.8,-,0.04,Rain,Heavy Rain,310,2013-07-20 01:54:00
10:14 PM,70.7,69.1,95,29.69,10.0,North,3.5,-,0.02,Rain,Light Rain,360,2013-07-20 02:14:00
10:34 PM,71.2,69.4,94,29.71,10.0,Calm,Calm,-,0.02,,Mostly Cloudy,0,2013-07-20 02:34:00
10:54 PM,70.7,69.4,96,29.72,10.0,Calm,Calm,-,0.02,,Mostly Cloudy,0,2013-07-20 02:54:00
11:13 PM,70.3,69.1,96,29.71,10.0,Calm,Calm,-,N/A,,Mostly Cloudy,0,2013-07-20 03:13:00
11:34 PM,70.0,68.2,94,29.72,10.0,North,3.5,-,N/A,,Scattered Clouds,10,2013-07-20 03:34:00
11:54 PM,70.3,68.4,93,29.72,10.0,NNE,3.5,-,N/A,,Mostly Cloudy,20,2013-07-20 03:54:00